Regional Weather Roundup
Issued by NWS Upton, NY

Current Version | Previous Version | Text Only | Print | Product List | Glossary On
Versions: 1 2 3 4 5 6 7 8 9 10 11 12 13 14 15 16 17 18 19 20 21 22 23 24 25 26 27 28 29 30 31 32 33 34 35 36 37 38 39 40 41 42 43 44 45 46 47 48 49 50
000
ASUS41 KOKX 301210
RWROKX

Regional Weather Roundup
National Weather Service New York NY
800 AM EDT FRI SEP 30 2022

Note: "FAIR" indicates few or no clouds below 12,000 feet with no
significant weather and/or obstructions to visibility.

NYZ071-072-176-178-NJZ106-104-301300-
New York City Metro Area

CITY           SKY/WX    TMP DP  RH WIND       PRES   REMARKS
Central Park   CLOUDY    53  40  61 NE8       30.37S
World Trd Ctr  NOT AVBL
Bronx Lehman C   N/A     48  39  71 N7          N/A
LaGuardia Arpt PTSUNNY   53  39  59 NE13      30.34S
Queens College   N/A     54  45  71 NE9         N/A
Kennedy Intl   PTSUNNY   54  46  74 NE9       30.34S
Breezy Point     N/A     54 N/A N/A NE10        N/A
Brooklyn Coll    N/A     54  43  66 N8          N/A
Staten Island    N/A     52  41  66 N6          N/A
Newark/Liberty PTSUNNY   50  41  71 N12       30.34S
Teterboro      MOSUNNY   50  39  66 NE5       30.34S
$$

NYZ177-179-078>081-301300-
Long Island New York

CITY           SKY/WX    TMP DP  RH WIND       PRES   REMARKS
Jones Beach      N/A     55 N/A N/A NE15        N/A
Wantagh          N/A     54  46  76 NE7         N/A
Hempstead      NOT AVBL
Matinecock Pt    N/A     54 N/A N/A NE16        N/A
Farmingdale    PTSUNNY   54  46  74 NE7       30.34R
MacArthur/ISP  PTSUNNY   54  47  77 NE8       30.33S
Stony Brook      N/A     54  46  76 NE2         N/A
Shirley        PTSUNNY   53  46  77 VRB5      30.34S
Mt Sinai Harb    N/A     54 N/A N/A N9G15       N/A
Westhampton    NOT AVBL
East Hampton   FAIR      51  49  91 N3        30.34S
Southold         N/A     54  48  82 NE3         N/A
Montauk          N/A     56  51  84 NE7       30.35R
$$

NYZ052-065-067-301300-
Hudson Valley

CITY           SKY/WX    TMP DP  RH WIND       PRES   REMARKS
White Plains   MOSUNNY   48  39  71 N7        30.34S
Larchmont Harb   N/A     50 N/A N/A N12         N/A
Croton On Huds   N/A     52 N/A N/A CALM        N/A
Somers           N/A     46  37  71 N2          N/A
Brewster         N/A     45  39  81 N5          N/A
Newburgh       PTSUNNY   46  43  87 VRB6      30.37S
Montgomery     NOT AVBL
Otisville        N/A     43  43 100 E1          N/A
Warwick          N/A     41  39  93 CALM        N/A
Suffern          N/A     46  37  71 N5          N/A
Poughkeepsie   PTSUNNY   44  41  89 CALM      30.38R
Albany         PTSUNNY   43  41  93 CALM      30.41R
$$

NJZ001-105-106-008-010-013-015-019>022-104-301300-
New Jersey

CITY           SKY/WX    TMP DP  RH WIND       PRES   REMARKS
Newark/Liberty PTSUNNY   50  41  71 N12       30.34S
Teterboro      MOSUNNY   50  39  66 NE5       30.34S
Caldwell       MOSUNNY   48  42  80 VRB3      30.36S
Somerville     MOSUNNY   50  42  74 MISG      30.33S
Linden         FAIR      53  39  60 NE8       30.34F
Perth Amboy      N/A     54 N/A N/A NE7G13      N/A
Sussex         MOSUNNY   48  43  82 N7        30.38R
Andover          N/A     46  42  86 NE6       30.37R
Trenton        PTSUNNY   50  42  74 NE10      30.31F
Millville      CLOUDY    55  48  77 N14       30.26S
Atlantic City  CLOUDY    55  50  83 N10       30.26S
Wrightstown    PTSUNNY   51  45  78 N9        30.30S
Toms River     NOT AVBL
Belmar         CLOUDY    58  51  78 N8        30.32S
$$

PAZ047>061-062-071-301300-
Eastern Pennsylvania

CITY           SKY/WX    TMP DP  RH WIND       PRES   REMARKS
Philadelphia   CLOUDY    56  46  69 NE13      30.30F
Allentown      MOSUNNY   48  42  80 NE10      30.35S
Scranton       PTSUNNY   43  40  89 E5        30.37R
$$

CTZ002-004>006-009-010-012-RIZ004-006-007-MAZ004-011-015-301300-
Southern New England

 In CT

CITY           SKY/WX    TMP DP  RH WIND       PRES   REMARKS
Bradley Intl   PTSUNNY   44  39  82 N6        30.39R
Hartford       PTSUNNY   46  41  82 N5        30.39R
Danbury        MOSUNNY   49  39  68 E3        30.38R
Wtrbury/Oxford PTSUNNY   45  40  82 NE10      30.36S
Norwalk Harbor   N/A     46 N/A N/A N12         N/A
Bridgeport     MOSUNNY   49  41  74 N10       30.36R
Meriden        PTSUNNY   47  39  74 NE9       30.38S
New Haven      MOSUNNY   50  42  74 N13       30.36S
Chester        FAIR      46  43  87 VRB6      30.36S
Groton         MOSUNNY   49  43  80 N10       30.35R
Willimantic    PTSUNNY   44  42  93 N5        30.37S

 In RI

CITY           SKY/WX    TMP DP  RH WIND       PRES   REMARKS
Providence     PTSUNNY   48  43  82 N7        30.37R
Block Island   MOSUNNY   54  50  86 NE9G16    30.34S
Westerly       MOSUNNY   48  45  89 N3        30.34S

In MA

CITY           SKY/WX    TMP DP  RH WIND       PRES   REMARKS
Boston         PTSUNNY   50  43  77 N9        30.38S
Worcester      PTSUNNY   46  38  73 N8        30.37R
Westfield      PTSUNNY   43  39  86 N5        30.39S
Provincetown   PTSUNNY   57  49  74 NE9       30.36R
Nantucket      PTSUNNY   60  52  74 NE12      30.32R
$$

ANZ330-335-338-340-345-350-353-355-301300-
Coastal Marine Observations


STATION/POSITION TIME  SKY/WX   TEMP    WIND        PRES    VSBY  WAVE
                                AIR SEA DIR/SP/G                  HT/PER
                 (UTC)          (F)     (DEG/KT/KT) (MB)    (MI)  (FT/S)
NY Harb Entrance 1150               68   40/ 19/ 25 1025.6          4/ 5
20 S Fire Island 1150               68              1025.0          5/ 5
Great South Bay  1115            55     120/ 12/ 16   N/A
23 SSW Montauk P 1150            61      60/ 16/ 19 1026.6          4/ 5
15 E Barnegat Li 1156               67                N/A           6/ 6
Hudson Canyon    1150            64 70   50/ 19/ 25 1024.0          6/ 6
Kings Point      1124            54 67   30/  6/ 12 1027.7
Execution Rocks  1145            54 68   30/ 14       N/A
Western LI Sound 1130            54      40/ 14/ 17   N/A
Central LI Sound NOT AVBL
Robbins Reef     1130            54      20/  8/ 12 1027.2
$$


>>>>>>>>>>>>>>>>>>>>>>>>>>>> KEY <<<<<<<<<<<<<<<<<<<<<<<<<<<
>                                                          <
>     SKY/WX - Sky Condition/Present Weather               <
>     TMP    - Temperature in Fahrenheit                   <
>     DP     - Dew Point in Fahrenheit                     <
>     RH     - Relative Humidity in Percent                <
>     WIND   - Direction (from) and Speed in MPH           <
>     PRES   - Mean Sea Level Pressure (inches of Hg)      <
>     WCI    - Wind Chill Index                            <
>     VSB    - Visibility in Miles                         <
>     HX     - Heat Index                                  <
>     TC     - Temperature in Celsius                      <
>     VRB    - Variable Wind Direction                     <
>                                                          <
>>>>>>>>>>>>>>>>>>>>>>>>>>>> KEY <<<<<<<<<<<<<<<<<<<<<<<<<<<



USA.gov is the U.S. government's official web portal to all federal, state and local government web resources and services.